| time (UTC) | temp C | wind direction | speed KPH | gust KPH | rain 1hr cm | rain 24hr cm | rain mn cm | humidity % | barometer mb |
| 20260505033339 | 12 | 357 | 0.0 | 0.0 | 0.08 | 0.38 | 0.38 | 92 | 1013.4 |
| 20260505032843 | 12 | 356 | 0.0 | 0.0 | 0.10 | 0.38 | 0.38 | 92 | 1013.6 |
| 20260505032327 | 12 | 356 | 0.0 | 0.0 | 0.13 | 0.38 | 0.38 | 92 | 1013.7 |
| 20260505031831 | 12 | 356 | 0.0 | 0.0 | 0.15 | 0.38 | 0.38 | 92 | 1013.8 |
| 20260505031303 | 12 | 356 | 0.0 | 0.0 | 0.15 | 0.38 | 0.38 | 92 | 1013.9 |
| 20260505030804 | 12 | 356 | 0.0 | 1.6 | 0.18 | 0.38 | 0.38 | 91 | 1013.8 |
| 20260505030304 | 12 | 356 | 0.0 | 1.6 | 0.20 | 0.38 | 0.38 | 91 | 1013.9 |
| 20260505025252 | 12 | 52 | 0.0 | 0.0 | 0.23 | 0.38 | 0.38 | 91 | 1014.0 |
| 20260505024752 | 12 | 49 | 0.0 | 1.6 | 0.23 | 0.38 | 0.38 | 91 | 1014.2 |
| 20260505024252 | 12 | 48 | 0.0 | 3.2 | 0.23 | 0.36 | 0.36 | 90 | 1014.3 |
| 20260505023253 | 12 | 99 | 0.0 | 0.0 | 0.20 | 0.30 | 0.30 | 91 | 1014.1 |
| 20260505022253 | 12 | 102 | 0.0 | 0.0 | 0.18 | 0.25 | 0.25 | 90 | 1014.2 |
| 20260505021753 | 12 | 102 | 0.0 | 0.0 | 0.18 | 0.23 | 0.23 | 89 | 1014.3 |
| 20260505021253 | 12 | 101 | 0.0 | 0.0 | 0.20 | 0.23 | 0.23 | 89 | 1014.5 |
| 20260505020244 | 12 | 113 | 0.0 | 4.8 | 0.15 | 0.18 | 0.18 | 87 | 1014.7 |
| 20260505015742 | 12 | 308 | 4.8 | 4.8 | 0.15 | 0.15 | 0.15 | 87 | 1014.6 |
| 20260505015242 | 12 | 306 | 0.0 | 3.2 | 0.15 | 0.15 | 0.15 | 87 | 1014.6 |
| 20260505014229 | 12 | 251 | 0.0 | 1.6 | 0.13 | 0.13 | 0.13 | 86 | 1014.7 |
| 20260505013728 | 12 | 255 | 0.0 | 1.6 | 0.13 | 0.13 | 0.13 | 85 | 1014.8 |
| 20260505013228 | 12 | 154 | 0.0 | 3.2 | 0.10 | 0.10 | 0.10 | 84 | 1014.8 |
| 20260505012728 | 12 | 150 | 0.0 | 3.2 | 0.08 | 0.08 | 0.08 | 84 | 1014.9 |
| 20260505012221 | 13 | 284 | 0.0 | 1.6 | 0.08 | 0.08 | 0.08 | 84 | 1015.1 |
| 20260505011704 | 13 | 156 | 0.0 | 1.6 | 0.05 | 0.05 | 0.05 | 84 | 1014.9 |
| 20260505011205 | 13 | 157 | 0.0 | 0.0 | 0.03 | 0.03 | 0.03 | 83 | 1015.0 |
| 20260505010700 | 13 | 157 | 0.0 | 3.2 | 0.03 | 0.03 | 0.03 | 80 | 1015.0 |
| 20260505010153 | 13 | 157 | 0.0 | 3.2 | 0.03 | 0.03 | 0.03 | 76 | 1015.0 |
| 20260505005651 | 14 | 159 | 0.0 | 1.6 | 0.00 | 0.00 | 0.00 | 75 | 1015.1 |
| 20260505005152 | 14 | 161 | 0.0 | 0.0 | 0.00 | 0.00 | 0.00 | 74 | 1015.1 |
| 20260505004651 | 13 | 159 | 0.0 | 1.6 | 0.00 | 0.00 | 0.00 | 73 | 1015.3 |
| 20260505003652 | 13 | 288 | 0.0 | 0.0 | 0.00 | 0.00 | 0.00 | 74 | 1015.2 |
| 20260505002640 | 13 | 288 | 0.0 | 0.0 | 0.00 | 0.00 | 0.00 | 74 | 1015.5 |
| 20260505002141 | 13 | 289 | 0.0 | 0.0 | 0.00 | 0.00 | 0.00 | 73 | 1015.6 |
| 20260505001641 | 13 | 289 | 0.0 | 0.0 | 0.00 | 0.00 | 0.00 | 74 | 1016.0 |
| 20260505000640 | 13 | 289 | 0.0 | 0.0 | 0.00 | 0.00 | 0.00 | 75 | 1015.7 |
| 20260505000140 | 13 | 289 | 0.0 | 0.0 | 0.00 | 0.00 | 0.00 | 74 | 1015.7 |
| 20260504235640 | 13 | 289 | 0.0 | 0.0 | 0.00 | 0.00 | 0.00 | 76 | 1015.7 |
| 20260504234629 | 13 | 289 | 0.0 | 0.0 | 0.00 | 0.00 | 0.00 | 74 | 1015.8 |
| 20260504234128 | 13 | 289 | 0.0 | 0.0 | 0.00 | 0.00 | 0.00 | 74 | 1015.8 |
| 20260504233615 | 13 | 289 | 0.0 | 0.0 | 0.00 | 0.00 | 0.00 | 73 | 1016.0 |
| 20260504233119 | 13 | 289 | 0.0 | 0.0 | 0.00 | 0.00 | 0.00 | 72 | 1016.0 |
| 20260504232555 | 13 | 289 | 0.0 | 0.0 | 0.00 | 0.00 | 0.00 | 72 | 1016.1 |
| 20260504232051 | 13 | 289 | 0.0 | 0.0 | 0.00 | 0.00 | 0.00 | 73 | 1016.1 |
| 20260504231553 | 13 | 289 | 0.0 | 0.0 | 0.00 | 0.00 | 0.00 | 73 | 1016.2 |
| 20260504231042 | 13 | 289 | 0.0 | 0.0 | 0.00 | 0.00 | 0.00 | 73 | 1016.3 |
| 20260504230540 | 13 | 289 | 0.0 | 0.0 | 0.00 | 0.00 | 0.00 | 72 | 1016.6 |
| 20260504230040 | 13 | 289 | 0.0 | 0.0 | 0.00 | 0.00 | 0.00 | 71 | 1016.4 |
| 20260504225540 | 13 | 289 | 0.0 | 0.0 | 0.00 | 0.00 | 0.00 | 72 | 1016.6 |
| 20260504224539 | 13 | 289 | 0.0 | 0.0 | 0.00 | 0.00 | 0.00 | 71 | 1016.6 |
| 20260504224040 | 13 | 288 | 0.0 | 0.0 | 0.00 | 0.00 | 0.00 | 72 | 1016.6 |
| 20260504223527 | 13 | 289 | 0.0 | 0.0 | 0.00 | 0.00 | 0.00 | 72 | 1016.6 |
| 20260504223028 | 13 | 289 | 0.0 | 0.0 | 0.00 | 0.00 | 0.00 | 71 | 1016.6 |
| 20260504222504 | 13 | 289 | 0.0 | 0.0 | 0.00 | 0.00 | 0.00 | 71 | 1016.7 |
| 20260504222004 | 13 | 289 | 0.0 | 0.0 | 0.00 | 0.00 | 0.00 | 71 | 1016.7 |
| 20260504221452 | 13 | 290 | 0.0 | 1.6 | 0.00 | 0.00 | 0.00 | 70 | 1016.6 |
| 20260504220953 | 13 | 290 | 0.0 | 3.2 | 0.00 | 0.00 | 0.00 | 68 | 1016.7 |
| 20260504220453 | 13 | 289 | 1.6 | 3.2 | 0.00 | 0.00 | 0.00 | 69 | 1016.7 |
| 20260504215952 | 13 | 162 | 0.0 | 0.0 | 0.00 | 0.00 | 0.00 | 70 | 1016.9 |
| 20260504215453 | 13 | 162 | 0.0 | 1.6 | 0.00 | 0.00 | 0.00 | 69 | 1017.0 |
| 20260504214453 | 14 | 171 | 0.0 | 0.0 | 0.00 | 0.00 | 0.00 | 67 | 1017.0 |
| 20260504213952 | 15 | 171 | 0.0 | 0.0 | 0.00 | 0.00 | 0.00 | 65 | 1016.7 |
| 20260504213455 | 15 | 174 | 0.0 | 1.6 | 0.00 | 0.00 | 0.00 | 64 | 1016.8 |
| 20260504212955 | 15 | 174 | 0.0 | 1.6 | 0.00 | 0.00 | 0.00 | 63 | 1016.9 |
| 20260504212453 | 15 | 215 | 0.0 | 1.6 | 0.00 | 0.00 | 0.00 | 62 | 1016.8 |
| 20260504211953 | 16 | 133 | 0.0 | 3.2 | 0.00 | 0.00 | 0.00 | 60 | 1016.9 |
| 20260504211452 | 16 | 112 | 0.0 | 3.2 | 0.00 | 0.00 | 0.00 | 60 | 1016.8 |
| 20260504210953 | 16 | 120 | 0.0 | 6.4 | 0.00 | 0.00 | 0.00 | 60 | 1016.9 |
| 20260504205957 | 15 | 296 | 1.6 | 3.2 | 0.00 | 0.00 | 0.00 | 59 | 1017.0 |
| 20260504205441 | 16 | 234 | 0.0 | 1.6 | 0.00 | 0.00 | 0.00 | 59 | 1017.1 |
| 20260504204942 | 16 | 222 | 0.0 | 1.6 | 0.00 | 0.00 | 0.00 | 58 | 1017.2 |
| 20260504203940 | 16 | 289 | 0.0 | 0.0 | 0.00 | 0.00 | 0.00 | 58 | 1017.0 |
| 20260504202939 | 16 | 287 | 0.0 | 3.2 | 0.00 | 0.00 | 0.00 | 57 | 1016.7 |
| 20260504202440 | 16 | 289 | 0.0 | 3.2 | 0.00 | 0.00 | 0.00 | 57 | 1016.9 |
| 20260504201943 | 16 | 338 | 0.0 | 3.2 | 0.00 | 0.00 | 0.00 | 56 | 1016.7 |
| 20260504201442 | 16 | 154 | 0.0 | 1.6 | 0.00 | 0.00 | 0.00 | 56 | 1016.8 |
| 20260504200940 | 16 | 183 | 0.0 | 1.6 | 0.00 | 0.00 | 0.00 | 55 | 1017.0 |
| 20260504200440 | 16 | 152 | 0.0 | 1.6 | 0.00 | 0.00 | 0.00 | 55 | 1016.9 |
| 20260504195941 | 16 | 14 | 0.0 | 3.2 | 0.00 | 0.00 | 0.00 | 55 | 1017.0 |
| 20260504195441 | 16 | 336 | 0.0 | 3.2 | 0.00 | 0.00 | 0.00 | 54 | 1016.9 |
| 20260504194942 | 16 | 84 | 0.0 | 1.6 | 0.00 | 0.00 | 0.00 | 53 | 1016.9 |
| 20260504194444 | 16 | 36 | 0.0 | 3.2 | 0.00 | 0.00 | 0.00 | 53 | 1017.1 |
| 20260504193428 | 16 | 127 | 0.0 | 1.6 | 0.00 | 0.00 | 0.00 | 51 | 1016.6 |
| 20260504192928 | 17 | 91 | 0.0 | 0.0 | 0.00 | 0.00 | 0.00 | 51 | 1016.6 |
| 20260504192427 | 17 | 99 | 0.0 | 3.2 | 0.00 | 0.00 | 0.00 | 51 | 1016.5 |
| 20260504191429 | 17 | 305 | 0.0 | 3.2 | 0.00 | 0.00 | 0.00 | 49 | 1016.5 |
| 20260504185929 | 17 | 160 | 0.0 | 3.2 | 0.00 | 0.00 | 0.00 | 45 | 1016.2 |
| 20260504185431 | 18 | 149 | 0.0 | 4.8 | 0.00 | 0.00 | 0.00 | 45 | 1016.0 |
| 20260504184905 | 18 | 145 | 4.8 | 4.8 | 0.00 | 0.00 | 0.00 | 45 | 1016.4 |
| 20260504184404 | 18 | 182 | 0.0 | 3.2 | 0.00 | 0.00 | 0.00 | 45 | 1016.4 |
| 20260504183904 | 18 | 149 | 0.0 | 3.2 | 0.00 | 0.00 | 0.00 | 44 | 1016.2 |
| 20260504183354 | 18 | 161 | 1.6 | 6.4 | 0.00 | 0.00 | 0.00 | 43 | 1016.2 |
| 20260504182853 | 18 | 167 | 0.0 | 6.4 | 0.00 | 0.00 | 0.00 | 43 | 1016.4 |
| 20260504182354 | 18 | 137 | 1.6 | 3.2 | 0.00 | 0.00 | 0.00 | 42 | 1016.4 |
| 20260504181852 | 18 | 141 | 1.6 | 4.8 | 0.00 | 0.00 | 0.00 | 42 | 1016.5 |
| 20260504180853 | 18 | 238 | 0.0 | 1.6 | 0.00 | 0.00 | 0.00 | 42 | 1016.2 |
| 20260504180356 | 18 | 153 | 0.0 | 1.6 | 0.00 | 0.00 | 0.00 | 41 | 1016.0 |
| 20260504175853 | 18 | 162 | 0.0 | 1.6 | 0.00 | 0.00 | 0.00 | 42 | 1016.5 |
| 20260504175355 | 18 | 206 | 1.6 | 1.6 | 0.00 | 0.00 | 0.00 | 41 | 1016.3 |
| 20260504174853 | 18 | 129 | 0.0 | 3.2 | 0.00 | 0.00 | 0.00 | 42 | 1016.0 |
| 20260504174354 | 18 | 129 | 0.0 | 3.2 | 0.00 | 0.00 | 0.00 | 40 | 1016.0 |
| 20260504173858 | 18 | 176 | 0.0 | 3.2 | 0.00 | 0.00 | 0.00 | 39 | 1016.1 |
| 20260504173355 | 19 | 152 | 0.0 | 1.6 | 0.00 | 0.00 | 0.00 | 40 | 1015.9 |
| 20260504172851 | 19 | 152 | 0.0 | 1.6 | 0.00 | 0.00 | 0.00 | 38 | 1015.8 |
| 20260504172353 | 20 | 220 | 0.0 | 3.2 | 0.00 | 0.00 | 0.00 | 39 | 1015.9 |
| 20260504171851 | 20 | 150 | 0.0 | 3.2 | 0.00 | 0.00 | 0.00 | 42 | 1015.9 |
| 20260504171353 | 20 | 212 | 0.0 | 1.6 | 0.00 | 0.00 | 0.00 | 39 | 1015.9 |
| 20260504170354 | 20 | 227 | 0.0 | 3.2 | 0.00 | 0.00 | 0.00 | 40 | 1015.9 |
| 20260504160353 | 22 | 186 | 0.0 | 1.6 | 0.00 | 0.00 | 0.00 | 41 | 1015.8 |
| 20260504150853 | 22 | 197 | 0.0 | 1.6 | 0.00 | 0.00 | 0.00 | 39 | 1015.9 |
| 20260504150354 | 22 | 196 | 0.0 | 1.6 | 0.00 | 0.00 | 0.00 | 39 | 1015.9 |
| 20260504140854 | 23 | 203 | 0.0 | 1.6 | 0.00 | 0.00 | 0.00 | 37 | 1016.0 |
| 20260504140406 | 23 | 180 | 0.0 | 1.6 | 0.00 | 0.00 | 0.00 | 37 | 1016.1 |
| 20260504110228 | 23 | 109 | 0.0 | 3.2 | 0.00 | 0.00 | 0.00 | 39 | 1017.4 |
| 20260504100153 | 23 | 114 | 0.0 | 1.6 | 0.00 | 0.00 | 0.00 | 36 | 1018.3 |
| 20260504081643 | 18 | 332 | 0.0 | 1.6 | 0.00 | 0.00 | 0.00 | 59 | 1018.6 |
| 20260504081141 | 17 | 345 | 0.0 | 1.6 | 0.00 | 0.00 | 0.00 | 63 | 1018.6 |
| 20260504080641 | 17 | 345 | 0.0 | 1.6 | 0.00 | 0.00 | 0.00 | 62 | 1018.6 |
| 20260504080139 | 17 | 338 | 0.0 | 1.6 | 0.00 | 0.00 | 0.00 | 63 | 1018.6 |
| 20260504060116 | 9 | 328 | 0.0 | 0.0 | 0.00 | 0.00 | 0.00 | 85 | 1018.7 |
| 20260504045554 | 6 | 328 | 0.0 | 0.0 | 0.00 | 0.00 | 0.00 | 92 | 1018.7 |
| 20260504045054 | 6 | 328 | 0.0 | 0.0 | 0.00 | 0.00 | 0.00 | 92 | 1018.6 |
| 20260504044553 | 6 | 328 | 0.0 | 0.0 | 0.00 | 0.00 | 0.00 | 92 | 1018.6 |
| 20260504044054 | 6 | 329 | 0.0 | 0.0 | 0.00 | 0.00 | 0.00 | 92 | 1018.5 |
| 20260504043553 | 5 | 328 | 0.0 | 0.0 | 0.00 | 0.00 | 0.00 | 92 | 1018.2 |
| 20260504042553 | 5 | 328 | 0.0 | 0.0 | 0.00 | 0.00 | 0.00 | 92 | 1018.4 |
| 20260504041552 | 6 | 328 | 0.0 | 0.0 | 0.00 | 0.00 | 0.00 | 92 | 1018.0 |
| 20260504041053 | 6 | 328 | 0.0 | 0.0 | 0.00 | 0.00 | 0.00 | 92 | 1018.3 |
| 20260504040552 | 6 | 328 | 0.0 | 0.0 | 0.00 | 0.00 | 0.00 | 92 | 1018.1 |
| 20260504040054 | 6 | 328 | 0.0 | 0.0 | 0.00 | 0.00 | 0.00 | 91 | 1018.2 |
| 20260504035553 | 6 | 329 | 0.0 | 0.0 | 0.00 | 0.00 | 0.00 | 91 | 1018.1 |
| 20260504034054 | 6 | 328 | 0.0 | 0.0 | 0.00 | 0.00 | 0.00 | 91 | 1018.1 |